Home   Weather   Mount Isa   Past weeks
Flag for Australia

Past Weather in Mount Isa, Queensland, Australia — Yesterday and Last 2 Weeks

Now
57 °F

Sunny.


Feels Like: 57 °F
Forecast: 94 / 55 °F
Wind: No wind

Location: Mount Isa Amo

Current Time: Sep 19, 2019 at 8:10:27 am

Latest Report: Sep 19, 2019 at 7:30 am


Visibility: N/A

Pressure: 30.09 "Hg

Humidity: 21%

Dew Point: 18 °F

Location of Mount IsaLocation

Past Weather in Mount Isa — Graph

°F

Mount Isa Temperature Yesterday

Maximum temperature yesterday: 93 °F (at 1:30 pm)
Minimum temperature yesterday: 63 °F (at 5:30 am)
Average temperature yesterday: 80 °F

High & Low Weather Summary for the Past Weeks

 TemperatureHumidityPressure
High93 °F (Sep 6, 1:30 pm)59% (Sep 6, 7:30 am)30.30 "Hg (Sep 6, 7:30 am)
Low45 °F (Sep 4, 6:00 am)7% (Sep 14, 4:30 pm)29.92 "Hg (Sep 5, 3:00 pm)
Average71 °F20%30.11 "Hg
* Reported Sep 4 6:00 am — Sep 19 6:30 am, Mount Isa. Weather by CustomWeather, © 2019

Note: Actual official high and low records may vary slightly from our data, if they occured in-between our weather recording intervals... More about our weather records

Advertising

Mount Isa Weather History for the Previous 24 Hours

Scroll right to see more
 ConditionsComfort  
Time TempWeatherWind HumidityBarometerVisibility
6:30 am
Thu, Sep 19
50 °FClear.1 mph20%30.09 "HgN/A
6:00 am54 °FClear.No wind18%30.07 "HgN/A
5:43 am55 °FClear.No wind15%30.07 "HgN/A
5:30 am64 °FClear.No wind11%30.07 "HgN/A
5:00 am64 °FClear.3 mph12%30.07 "HgN/A
4:30 am52 °FClear.3 mph22%30.07 "HgN/A
4:00 am52 °FClear.6 mph26%30.07 "HgN/A
3:30 am54 °FClear.5 mph22%30.07 "HgN/A
3:00 am55 °FClear.1 mph23%30.07 "HgN/A
2:30 am59 °FClear.1 mph18%30.07 "HgN/A
2:22 am59 °FClear.3 mph17%30.07 "HgN/A
2:00 am68 °FClear.6 mph14%30.07 "HgN/A
1:30 am70 °FClear.3 mph13%30.07 "HgN/A
1:00 am70 °FClear.3 mph13%30.07 "HgN/A
12:30 am73 °FClear.8 mph13%30.09 "HgN/A
12:00 am75 °FClear.8 mph13%30.09 "HgN/A
11:30 pm
Wed, Sep 18
75 °FClear.12 mph12%30.09 "HgN/A
11:00 pm75 °FClear.10 mph13%30.09 "HgN/A
10:30 pm75 °FClear.8 mph13%30.09 "HgN/A
10:00 pm77 °FClear.10 mph12%30.09 "HgN/A
9:30 pm77 °FClear.8 mph12%30.09 "HgN/A
9:00 pm72 °FClear.7 mph14%30.09 "HgN/A
8:30 pm75 °FClear.7 mph12%30.07 "HgN/A
8:00 pm81 °FClear.9 mph11%30.07 "HgN/A
7:30 pm82 °FClear.9 mph9%30.07 "HgN/A
7:00 pm84 °FClear.9 mph10%30.04 "HgN/A
6:30 pm88 °FSunny.14 mph9%30.04 "HgN/A
6:00 pm90 °FSunny.13 mph8%30.04 "HgN/A
5:30 pm91 °FSunny.12 mph8%30.01 "HgN/A
5:00 pm93 °FSunny.10 mph8%30.01 "HgN/A
4:30 pm93 °FSunny.14 mph7%30.01 "HgN/A
4:00 pm93 °FSunny.10 mph8%30.01 "HgN/A
3:30 pm93 °FSunny.12 mph8%30.01 "HgN/A
3:00 pm93 °FSunny.9 mph8%30.04 "HgN/A
2:30 pm93 °FSunny.13 mph9%30.04 "HgN/A
2:00 pm93 °FSunny.10 mph10%30.07 "HgN/A
1:30 pm93 °FSunny.12 mph10%30.07 "HgN/A
1:00 pm91 °FSunny.9 mph10%30.09 "HgN/A
12:30 pm90 °FSunny.9 mph12%30.09 "HgN/A
12:00 pm90 °FSunny.7 mph13%30.12 "HgN/A
11:30 am88 °FSunny.9 mph13%30.12 "HgN/A
11:00 am86 °FSunny.10 mph14%30.15 "HgN/A
10:00 am82 °FSunny.9 mph17%30.18 "HgN/A
9:30 am79 °FSunny.9 mph21%30.18 "HgN/A
9:00 am77 °FSunny.12 mph21%30.18 "HgN/A
8:30 am75 °FSunny.9 mph24%30.15 "HgN/A
8:00 am73 °FSunny.6 mph25%30.15 "HgN/A
Weather by CustomWeather, © 2019

See weather overview